Weather History for Juliana Airport, St. Martin

Change the Weather History Date:

Wednesday, December 25, 2013

  Actual Average Record
Temperature  
Mean Temperature 78 °F -  
Max Temperature 82 °F 81 °F 87 °F (1999)
Min Temperature 73 °F 72 °F 71 °F (2007)
Cooling Degree Days 12    
Growing Degree Days 28 (Base 50)    
Moisture  
Dew Point 71 °F    
Average Humidity 77    
Maximum Humidity 89    
Minimum Humidity 60    
Precipitation  
Precipitation 0.00 in 0.09 in - ()
Sea Level Pressure  
Sea Level Pressure 29.96 in    
Wind  
Wind Speed 5 mph ()    
Max Wind Speed 12 mph    
Max Gust Speed -    
Visibility 7.2 miles    
Events      
Averages and records for this station are not official NWS values.
T = Trace of Precipitation, MM = Missing Value Source: Averaged Metar Reports

Daily Weather History Graph

Daily Weather History Graph

Search for Another Location

Airport:

Trip Planner

Search our weather history database for the weather conditions in past years. The results will help you decide how hot, cold, wet, or windy it might be!

Date:

Astronomy

Dec. 25, 2013 Rise Set
Actual Time 6:41 AM AST 5:44 PM AST
Civil Twilight 6:17 AM AST 6:08 PM AST
Nautical Twilight 5:50 AM AST 6:35 PM AST
Astronomical Twilight 5:23 AM AST 7:02 PM AST
Moon No Moon Rise 12:03 PM AST (12/25)
Length of Visible Light 11h 50m
Length of Day
11h 03m
Waning Gibbous, 49% of the Moon is Illuminated
Dec 25
Waning Gibbous
Jan 1
New
Jan 7
First Quarter
Jan 16
Full
Jan 24
Last Quarter

Hourly Weather History & Observations

Time (AST) Temp. Heat Index Dew Point Humidity Pressure Visibility Wind Dir Wind Speed Gust Speed Precip Events Conditions
12:00 AM 75.2 °F - 71.6 °F 89% 29.95 in 6.2 mi NE 3.5 mph - N/A   Partly Cloudy
1:00 AM 77.0 °F - 71.6 °F 83% 29.95 in 6.2 mi East 6.9 mph - N/A   Scattered Clouds
2:00 AM 76 °F - 70 °F 76% 29.94 in 19 mi 3.5 mph - -   Partly Cloudy
2:00 AM 75.2 °F - 69.8 °F 83% 29.92 in 6.2 mi Variable 3.5 mph - N/A   Partly Cloudy
3:00 AM 75.2 °F - 71.6 °F 89% 29.92 in 6.2 mi Variable 3.5 mph - N/A   Partly Cloudy
4:00 AM 75.2 °F - 69.8 °F 83% 29.92 in 6.2 mi Variable 2.3 mph - N/A   Partly Cloudy
5:00 AM 74 °F - 70 °F 82% 29.93 in 19 mi ENE 2.3 mph - -   Scattered Clouds
5:00 AM 75.2 °F - 69.8 °F 83% 29.92 in 6.2 mi ENE 2.3 mph - N/A   Partly Cloudy
6:00 AM 73.4 °F - 69.8 °F 88% 29.92 in 6.2 mi Variable 2.3 mph - N/A   Partly Cloudy
7:00 AM 75.2 °F - 71.6 °F 89% 29.95 in 6.2 mi Variable 2.3 mph - N/A   Partly Cloudy
8:00 AM 79 °F - 70 °F 68% 29.98 in 25 mi SE 8.1 mph - -   Scattered Clouds
8:00 AM 78.8 °F - 69.8 °F 74% 29.98 in 6.2 mi SE 8.1 mph - N/A   Partly Cloudy
9:00 AM 80.6 °F 83.9 °F 69.8 °F 70% 30.01 in 6.2 mi SE 8.1 mph - N/A   Partly Cloudy
10:00 AM 78.8 °F - 71.6 °F 78% 30.01 in 6.2 mi SW 8.1 mph - N/A   Scattered Clouds
11:00 AM 82 °F - 71 °F 60% 30.00 in 22 mi 2.3 mph - -   Scattered Clouds
11:00 AM 82.4 °F 87.2 °F 71.6 °F 70% 30.01 in 6.2 mi Variable 2.3 mph - N/A   Partly Cloudy
12:00 PM 80.6 °F 83.9 °F 69.8 °F 70% 29.98 in 6.2 mi Variable 2.3 mph - N/A   Partly Cloudy
1:00 PM 82.4 °F 87.2 °F 71.6 °F 70% 29.95 in 6.2 mi Variable 3.5 mph - N/A   Partly Cloudy
2:00 PM 81 °F - 71 °F 66% 29.94 in 31 mi SE 6.9 mph - -   Scattered Clouds
2:00 PM 80.6 °F 84.6 °F 71.6 °F 74% 29.92 in 6.2 mi SE 6.9 mph - N/A   Partly Cloudy
3:00 PM 80.6 °F 84.6 °F 71.6 °F 74% 29.92 in 6.2 mi SE 8.1 mph - N/A   Partly Cloudy
4:00 PM 80.6 °F 84.6 °F 71.6 °F 74% 29.92 in 6.2 mi SE 10.4 mph - N/A   Partly Cloudy
5:00 PM 80 °F - 72 °F 70% 29.94 in 31 mi ESE 10.4 mph - -   Scattered Clouds
5:00 PM 78.8 °F - 71.6 °F 78% 29.92 in 6.2 mi ESE 10.4 mph - N/A   Partly Cloudy
6:00 PM 78.8 °F - 71.6 °F 78% 29.95 in 6.2 mi SE 8.1 mph - N/A   Partly Cloudy
7:00 PM 78.8 °F - 71.6 °F 78% 29.98 in 6.2 mi ESE 5.8 mph - N/A   Partly Cloudy
8:00 PM 79 °F - 72 °F 73% 30.01 in 31 mi East 6.9 mph - -   Scattered Clouds
8:00 PM 78.8 °F - 71.6 °F 78% 30.01 in 6.2 mi East 6.9 mph - N/A   Partly Cloudy
9:00 PM 78.8 °F - 73.4 °F 83% 30.01 in 6.2 mi ESE 11.5 mph - N/A   Partly Cloudy
10:00 PM 78.8 °F - 71.6 °F 78% 30.01 in 6.2 mi ESE 11.5 mph - N/A   Partly Cloudy
11:00 PM 79 °F - 71 °F 70% 30.02 in 31 mi SE 11.5 mph - -   Scattered Clouds
11:00 PM 78.8 °F - 71.6 °F 78% 30.01 in 6.2 mi ESE 11.5 mph - N/A   Partly Cloudy